DCM141 KBOS-KBNA

Flight info

Callsign DCM141
Flight time N/A
Altitude 40000
Route BLZZR6 BLZZR BAF Q406 DBABE/N0448F430 Q406 BWZ J6 LRP/N0461F320 J6 MRB/N0447F430 J6 HVQ Q68 YOCKY CUTRR PASLY5
Aircraft FA50/M-SDFGHIM1RWXY/H

Departure

Time 2026-05-07 14:17
Airport Boston Logan International Airport (KBOS)

Arrival

Time N/A
Airport Nashville International Airport (KBNA)
Time Latitude Longitude Altitude Speed Heading
2026-05-07 14:12 42.36202 -71.01399 19 ft 26 kts 200°
2026-05-07 14:12 42.36032 -71.01484 19 ft 26 kts 199°
2026-05-07 14:12 42.35892 -71.01526 20 ft 13 kts 144°
2026-05-07 14:13 42.35859 -71.01358 20 ft 24 kts 98°
2026-05-07 14:13 42.35829 -71.01066 19 ft 37 kts 98°
2026-05-07 14:13 42.35789 -71.00722 21 ft 36 kts 98°
2026-05-07 14:13 42.35758 -71.00410 20 ft 29 kts 97°
2026-05-07 14:14 42.35782 -71.00143 19 ft 29 kts 75°
2026-05-07 14:14 42.35829 -70.99884 19 ft 28 kts 76°
2026-05-07 14:14 42.35896 -70.99760 19 ft 16 kts 327°
2026-05-07 14:14 42.35968 -70.99816 20 ft 20 kts 347°
2026-05-07 14:15 42.36004 -70.99706 19 ft 18 kts 80°
2026-05-07 14:15 42.36040 -70.99505 19 ft 27 kts 77°
2026-05-07 14:15 42.36083 -70.99242 19 ft 29 kts 76°
2026-05-07 14:15 42.36128 -70.98978 19 ft 29 kts 77°
2026-05-07 14:16 42.36096 -70.98843 20 ft 13 kts 170°
2026-05-07 14:16 42.36011 -70.98851 20 ft 13 kts 246°
2026-05-07 14:16 42.35951 -70.99179 19 ft 69 kts 256°
2026-05-07 14:16 42.35796 -71.00068 30 ft 120 kts 258°
2026-05-07 14:17 42.35458 -71.01117 463 ft 131 kts 228°
2026-05-07 14:17 42.34796 -71.02123 860 ft 155 kts 235°
2026-05-07 14:17 42.34275 -71.03620 1138 ft 192 kts 261°
2026-05-07 14:17 42.33767 -71.05186 2590 ft 177 kts 234°
2026-05-07 14:18 42.32913 -71.06286 3900 ft 162 kts 226°
2026-05-07 14:18 42.32086 -71.07272 4820 ft 161 kts 227°
2026-05-07 14:18 42.31171 -71.08404 4927 ft 199 kts 226°
2026-05-07 14:18 42.30036 -71.09795 4971 ft 241 kts 225°
2026-05-07 14:19 42.28708 -71.11435 5242 ft 267 kts 229°
2026-05-07 14:19 42.27726 -71.13411 6602 ft 245 kts 247°
2026-05-07 14:19 42.27256 -71.15597 7609 ft 243 kts 259°
2026-05-07 14:19 42.27045 -71.17859 8533 ft 242 kts 263°
2026-05-07 14:20 42.26892 -71.20104 9526 ft 239 kts 262°
2026-05-07 14:20 42.26703 -71.22326 10296 ft 241 kts 260°
2026-05-07 14:20 42.26483 -71.24623 10823 ft 249 kts 259°
2026-05-07 14:20 42.26264 -71.26925 11683 ft 246 kts 260°
2026-05-07 14:21 42.26060 -71.29216 12476 ft 246 kts 259°
2026-05-07 14:21 42.25856 -71.31510 13228 ft 247 kts 259°
2026-05-07 14:21 42.25648 -71.33814 13951 ft 248 kts 259°
2026-05-07 14:21 42.25437 -71.36133 14576 ft 250 kts 259°
2026-05-07 14:22 42.25223 -71.38478 15169 ft 253 kts 259°
2026-05-07 14:22 42.25007 -71.40849 15785 ft 256 kts 258°
2026-05-07 14:22 42.24790 -71.43217 16382 ft 259 kts 258°
2026-05-07 14:22 42.24567 -71.45644 16965 ft 262 kts 258°
2026-05-07 14:23 42.24342 -71.48099 17566 ft 265 kts 258°
2026-05-07 14:23 42.24113 -71.50583 18179 ft 268 kts 258°
2026-05-07 14:23 42.23882 -71.53078 18765 ft 268 kts 258°
2026-05-07 14:23 42.23652 -71.55560 19420 ft 266 kts 258°
2026-05-07 14:24 42.23420 -71.58049 19947 ft 269 kts 259°
2026-05-07 14:24 42.23187 -71.60552 20539 ft 268 kts 259°
2026-05-07 14:24 42.22955 -71.63040 21181 ft 267 kts 259°
2026-05-07 14:24 42.22723 -71.65518 21796 ft 266 kts 259°
2026-05-07 14:25 42.22491 -71.67986 22308 ft 265 kts 259°
2026-05-07 14:25 42.22257 -71.70452 22768 ft 265 kts 259°
2026-05-07 14:25 42.22026 -71.72921 23248 ft 265 kts 259°
2026-05-07 14:25 42.21784 -71.75382 23680 ft 264 kts 258°
2026-05-07 14:26 42.21290 -71.77753 24066 ft 263 kts 249°
2026-05-07 14:26 42.20530 -71.80001 24449 ft 263 kts 246°
2026-05-07 14:26 42.19753 -71.82235 24815 ft 263 kts 248°
2026-05-07 14:26 42.19047 -71.84503 25209 ft 262 kts 249°
2026-05-07 14:27 42.18354 -71.86774 25575 ft 262 kts 248°
2026-05-07 14:27 42.17643 -71.89028 25912 ft 261 kts 248°
2026-05-07 14:27 42.16928 -71.91273 26341 ft 260 kts 248°
2026-05-07 14:27 42.16220 -71.93514 26685 ft 260 kts 248°
2026-05-07 14:28 42.15511 -71.95759 27029 ft 260 kts 248°
2026-05-07 14:28 42.14803 -71.98001 27379 ft 260 kts 248°
2026-05-07 14:28 42.14093 -72.00245 27711 ft 261 kts 248°
2026-05-07 14:28 42.13381 -72.02489 28065 ft 260 kts 248°
2026-05-07 14:29 42.12669 -72.04734 28386 ft 261 kts 248°
2026-05-07 14:29 42.11955 -72.06982 28707 ft 261 kts 248°
2026-05-07 14:29 42.11240 -72.09236 29028 ft 262 kts 248°
2026-05-07 14:29 42.10522 -72.11490 29361 ft 261 kts 248°
2026-05-07 14:30 42.09816 -72.13711 29668 ft 262 kts 247°